When you browse on this site, cookies collect data to enhance your experience and personalize the content and advertising you see.
Visit our Privacy Policy to learn more. By continuing to use the site, you agree to this use of cookies and data.
  • In Österreich
  • Länderverzeichnis
  • Für 7 Tage
  • Wassertemperatur
  • Satellitenkarten
  • Wetterkarte
  • News
  • Widgets
  • user-avatar
    Anmelden

    Stündliche Wetter Roluos

    Heute, 25 April, Donnerstag

    Zeit Temperatur Niederschläge Wind Luftdruck Luftfeuchtigkeit
    00:00 +34°C° 0 mm 3 m/S 754 mmHg 58%
    01:00 +34°C° 0 mm 2 m/S 753 mmHg 61%
    02:00 +33°C° 0 mm 3 m/S 753 mmHg 64%
    03:00 +33°C° 0 mm 3 m/S 754 mmHg 66%
    04:00 +31°C° 0 mm 3 m/S 754 mmHg 68%
    05:00 +33°C° 0 mm 4 m/S 754 mmHg 68%
    06:00 +33°C° 0 mm 4 m/S 754 mmHg 68%
    07:00 +33°C° 0 mm 4 m/S 755 mmHg 67%
    08:00 +35°C° 0 mm 4 m/S 755 mmHg 61%
    09:00 +36°C° 0 mm 3 m/S 755 mmHg 56%
    10:00 +38°C° 0 mm 3 m/S 755 mmHg 50%
    11:00 +38°C° 0 mm 3 m/S 755 mmHg 49%
    12:00 +39°C° 0 mm 2 m/S 754 mmHg 47%
    13:00 +40°C° 0 mm 2 m/S 754 mmHg 44%
    14:00 +40°C° 0 mm 2 m/S 753 mmHg 43%
    15:00 +40°C° 0 mm 2 m/S 753 mmHg 42%
    16:00 +41°C° 0 mm 2 m/S 752 mmHg 40%
    17:00 +39°C° 0 mm 2 m/S 752 mmHg 43%
    18:00 +38°C° 0 mm 2 m/S 752 mmHg 46%
    19:00 +36°C° 0 mm 1 m/S 753 mmHg 50%
    20:00 +35°C° 0 mm 1 m/S 753 mmHg 51%
    21:00 +36°C° 0 mm 2 m/S 754 mmHg 52%
    22:00 +35°C° 0 mm 2 m/S 754 mmHg 53%
    23:00 +35°C° 0 mm 2 m/S 754 mmHg 55%

    Morgen, 26 April, Freitag

    Zeit Temperatur Niederschläge Wind Luftdruck Luftfeuchtigkeit
    00:00 +34°C° 0 mm 2 m/S 754 mmHg 57%
    01:00 +34°C° 0 mm 2 m/S 754 mmHg 59%
    02:00 +32°C° 0 mm 2 m/S 754 mmHg 62%
    03:00 +32°C° 0 mm 2 m/S 754 mmHg 65%
    04:00 +31°C° 0 mm 3 m/S 754 mmHg 68%
    05:00 +31°C° 0 mm 3 m/S 754 mmHg 69%
    06:00 +32°C° 0 mm 4 m/S 754 mmHg 70%
    07:00 +33°C° 0 mm 4 m/S 755 mmHg 70%
    08:00 +34°C° 0 mm 4 m/S 755 mmHg 63%
    09:00 +36°C° 0 mm 4 m/S 755 mmHg 56%
    10:00 +38°C° 0 mm 3 m/S 755 mmHg 49%
    11:00 +39°C° 0 mm 3 m/S 754 mmHg 44%
    12:00 +42°C° 0 mm 3 m/S 754 mmHg 39%
    13:00 +42°C° 0 mm 2 m/S 754 mmHg 34%
    14:00 +42°C° 0 mm 2 m/S 753 mmHg 32%
    15:00 +43°C° 0 mm 3 m/S 752 mmHg 30%
    16:00 +43°C° 0 mm 3 m/S 752 mmHg 29%
    17:00 +42°C° 0 mm 3 m/S 752 mmHg 31%
    18:00 +39°C° 0 mm 3 m/S 752 mmHg 34%
    19:00 +38°C° 0 mm 3 m/S 752 mmHg 37%
    20:00 +37°C° 0 mm 3 m/S 753 mmHg 41%
    21:00 +36°C° 0 mm 3 m/S 753 mmHg 45%
    22:00 +35°C° 0 mm 3 m/S 754 mmHg 49%
    23:00 +34°C° 0 mm 3 m/S 754 mmHg 52%

    übermorgen, 27 April, Samstag

    Zeit Temperatur Niederschläge Wind Luftdruck Luftfeuchtigkeit
    00:00 +34°C° 0 mm 2 m/S 754 mmHg 56%
    01:00 +32°C° 0 mm 2 m/S 754 mmHg 59%
    02:00 +32°C° 0 mm 2 m/S 754 mmHg 63%
    03:00 +31°C° 0 mm 2 m/S 754 mmHg 67%
    04:00 +30°C° 0 mm 2 m/S 754 mmHg 72%
    05:00 +31°C° 0 mm 2 m/S 754 mmHg 71%
    06:00 +31°C° 0 mm 1 m/S 755 mmHg 70%
    07:00 +31°C° 0 mm 1 m/S 755 mmHg 70%
    08:00 +33°C° 0 mm 1 m/S 756 mmHg 62%
    09:00 +35°C° 0 mm 1 m/S 756 mmHg 54%
    10:00 +37°C° 0 mm 1 m/S 756 mmHg 46%
    11:00 +39°C° 0 mm 1 m/S 755 mmHg 43%
    12:00 +40°C° 0 mm 1 m/S 755 mmHg 40%
    13:00 +41°C° 0 mm 1 m/S 754 mmHg 38%
    14:00 +41°C° 0 mm 1 m/S 753 mmHg 37%
    15:00 +41°C° 0 mm 2 m/S 752 mmHg 36%
    16:00 +41°C° 0 mm 2 m/S 752 mmHg 35%
    17:00 +40°C° 0 mm 2 m/S 752 mmHg 37%
    18:00 +39°C° 0 mm 2 m/S 752 mmHg 39%
    19:00 +38°C° 0 mm 3 m/S 753 mmHg 41%
    20:00 +37°C° 0 mm 3 m/S 753 mmHg 45%
    21:00 +36°C° 0 mm 3 m/S 754 mmHg 48%
    22:00 +35°C° 0 mm 4 m/S 755 mmHg 51%
    23:00 +34°C° 0 mm 3 m/S 755 mmHg 53%

    28 April, Sonntag

    Zeit Temperatur Niederschläge Wind Luftdruck Luftfeuchtigkeit
    00:00 +34°C° 0 mm 3 m/S 755 mmHg 56%
    01:00 +33°C° 0 mm 3 m/S 755 mmHg 58%
    02:00 +33°C° 0 mm 3 m/S 755 mmHg 61%
    03:00 +31°C° 0 mm 3 m/S 755 mmHg 64%
    04:00 +31°C° 0 mm 3 m/S 755 mmHg 66%
    05:00 +31°C° 0 mm 3 m/S 755 mmHg 66%
    06:00 +31°C° 0 mm 3 m/S 756 mmHg 66%
    07:00 +32°C° 0 mm 2 m/S 756 mmHg 66%
    08:00 +34°C° 0 mm 2 m/S 756 mmHg 59%
    09:00 +36°C° 0 mm 3 m/S 757 mmHg 53%
    10:00 +37°C° 0 mm 3 m/S 757 mmHg 47%
    11:00 +38°C° 0 mm 3 m/S 756 mmHg 44%
    12:00 +40°C° 0 mm 3 m/S 755 mmHg 40%
    13:00 +42°C° 0 mm 3 m/S 755 mmHg 36%
    14:00 +40°C° 0 mm 3 m/S 754 mmHg 37%
    15:00 +40°C° 0 mm 3 m/S 753 mmHg 39%
    16:00 +39°C° 0 mm 3 m/S 753 mmHg 40%
    17:00 +38°C° 0 mm 4 m/S 753 mmHg 44%
    18:00 +37°C° 0 mm 5 m/S 753 mmHg 47%
    19:00 +36°C° 0 mm 5 m/S 754 mmHg 50%
    20:00 +35°C° 0 mm 4 m/S 754 mmHg 53%
    21:00 +34°C° 0 mm 4 m/S 755 mmHg 55%
    22:00 +34°C° 0 mm 3 m/S 756 mmHg 58%
    23:00 +32°C° 0 mm 2 m/S 755 mmHg 59%

    29 April, Montag

    Zeit Temperatur Niederschläge Wind Luftdruck Luftfeuchtigkeit
    00:00 +32°C° 0 mm 2 m/S 755 mmHg 60%
    01:00 +32°C° 0 mm 1 m/S 755 mmHg 62%
    02:00 +31°C° 0 mm 1 m/S 755 mmHg 63%
    03:00 +31°C° 0 mm 1 m/S 754 mmHg 64%
    04:00 +31°C° 0 mm 1 m/S 754 mmHg 65%
    05:00 +31°C° 0 mm 1 m/S 755 mmHg 64%
    06:00 +31°C° 0 mm 1 m/S 755 mmHg 64%
    07:00 +32°C° 0 mm 1 m/S 756 mmHg 63%
    08:00 +33°C° 0 mm 1 m/S 756 mmHg 57%
    09:00 +35°C° 0 mm 1 m/S 756 mmHg 51%
    10:00 +37°C° 0 mm 1 m/S 757 mmHg 45%
    11:00 +40°C° 0 mm 1 m/S 756 mmHg 41%
    12:00 +41°C° 0 mm 1 m/S 755 mmHg 37%
    13:00 +42°C° 0 mm 1 m/S 754 mmHg 34%
    14:00 +41°C° 0 mm 1 m/S 753 mmHg 35%
    15:00 +41°C° 0 mm 2 m/S 753 mmHg 36%
    16:00 +40°C° 0 mm 2 m/S 752 mmHg 37%
    17:00 +39°C° 0 mm 2 m/S 752 mmHg 40%
    18:00 +38°C° 0 mm 2 m/S 753 mmHg 43%
    19:00 +37°C° 0 mm 2 m/S 753 mmHg 45%
    20:00 +36°C° 0 mm 2 m/S 754 mmHg 48%
    21:00 +35°C° 0 mm 2 m/S 754 mmHg 50%
    22:00 +35°C° 0 mm 2 m/S 755 mmHg 53%
    23:00 +34°C° 0 mm 2 m/S 754 mmHg 55%

    30 April, Dienstag

    Zeit Temperatur Niederschläge Wind Luftdruck Luftfeuchtigkeit
    00:00 +32°C° 0 mm 2 m/S 754 mmHg 58%
    01:00 +32°C° 0 mm 2 m/S 754 mmHg 60%
    02:00 +31°C° 0 mm 2 m/S 754 mmHg 62%
    03:00 +31°C° 0 mm 2 m/S 754 mmHg 63%
    04:00 +31°C° 0 mm 2 m/S 753 mmHg 64%
    05:00 +31°C° 0 mm 3 m/S 754 mmHg 64%
    06:00 +31°C° 0 mm 3 m/S 755 mmHg 64%
    07:00 +33°C° 0 mm 3 m/S 755 mmHg 64%
    08:00 +35°C° 0 mm 3 m/S 755 mmHg 58%
    09:00 +37°C° 0 mm 3 m/S 756 mmHg 51%
    10:00 +39°C° 0 mm 3 m/S 756 mmHg 44%
    11:00 +39°C° 0 mm 3 m/S 755 mmHg 42%
    12:00 +40°C° 0 mm 2 m/S 754 mmHg 40%
    13:00 +41°C° 0 mm 2 m/S 753 mmHg 38%
    14:00 +41°C° 0 mm 2 m/S 753 mmHg 37%
    15:00 +41°C° 0 mm 2 m/S 752 mmHg 37%
    16:00 +41°C° 0 mm 2 m/S 752 mmHg 37%
    17:00 +39°C° 0 mm 2 m/S 752 mmHg 41%
    18:00 +38°C° 0 mm 3 m/S 752 mmHg 44%
    19:00 +37°C° 0 mm 3 m/S 753 mmHg 47%
    20:00 +36°C° 0.2 mm 3 m/S 753 mmHg 51%
    21:00 +35°C° 0.2 mm 3 m/S 754 mmHg 55%
    22:00 +34°C° 0.2 mm 3 m/S 754 mmHg 59%
    23:00 +32°C° 0 mm 2 m/S 754 mmHg 61%
    Mehr zeigen